Change the Weather History Date:

Saturday, December 15, 2012

  Actual Average Record
Temperature  
Mean Temperature 36 °F -  
Max Temperature 39 °F 37 °F 51 °F (2014)
Min Temperature 33 °F 28 °F -7 °F (1964)
Degree Days  
Heating Degree Days 29    
Moisture  
Dew Point 30 °F    
Average Humidity 78    
Maximum Humidity 87    
Minimum Humidity 70    
Precipitation  
Precipitation 0.16 in - - ()
Sea Level Pressure  
Sea Level Pressure 29.14 in    
Wind  
Wind Speed 11 mph (SSE)    
Max Wind Speed 21 mph    
Max Gust Speed 29 mph    
Visibility 10 miles    
Events      
Averages and records for this station are not official NWS values.
T = Trace of Precipitation, MM = Missing Value Source: NWS Daily Summary

Daily Weather History Graph

Daily Weather History Graph

Search for Another Location

Airport or City:

Trip Planner

Search our weather history database for the weather conditions in past years. The results will help you decide how hot, cold, wet, or windy it might be!

Date:

Astronomy

Dec. 15, 2012 Rise Set
Actual Time 8:18 AM AKST 3:11 PM AKST
Civil Twilight 7:30 AM AKST 3:59 PM AKST
Nautical Twilight 6:40 AM AKST 4:49 PM AKST
Astronomical Twilight 5:54 AM AKST 5:35 PM AKST
Moon 9:51 AM AKST (12/15) 6:52 PM AKST (12/15)
Length of Visible Light 8h 29m
Length of Day
6h 52m
Waxing Crescent, 9% of the Moon is Illuminated
Dec 15
Waxing Crescent
Dec 19
First Quarter
Dec 28
Full
Jan 4
Last Quarter
Jan 11
New

Hourly Weather History & Observations

Time (AKST) Temp. Windchill Dew Point Humidity Pressure Visibility Wind Dir Wind Speed Gust Speed Precip Events Conditions
12:16 AM 37.4 °F 27.8 °F 33.8 °F 87% 29.02 in 9.0 mi ESE 17.3 mph 27.6 mph 0.01 in   Overcast
12:36 AM 39.2 °F 29.8 °F 32.0 °F 75% 29.01 in 7.0 mi ESE 18.4 mph 24.2 mph 0.01 in   Overcast
12:56 AM 37.4 °F 27.5 °F 32.0 °F 81% 29.01 in 9.0 mi ESE 18.4 mph 27.6 mph 0.02 in   Overcast
1:16 AM 37.4 °F 27.2 °F 32.0 °F 81% 29.00 in 10.0 mi SE 19.6 mph 28.8 mph 0.01 in   Overcast
1:36 AM 39.2 °F 30.2 °F 32.0 °F 75% 29.00 in 10.0 mi ESE 17.3 mph 26.5 mph 0.01 in   Mostly Cloudy
1:56 AM 39.2 °F 29.3 °F 32.0 °F 75% 28.99 in 10.0 mi SE 20.7 mph 26.5 mph 0.01 in   Overcast
2:16 AM 39.2 °F 29.6 °F 32.0 °F 75% 28.99 in 10.0 mi SE 19.6 mph 24.2 mph N/A   Overcast
2:36 AM 39.2 °F 29.3 °F 32.0 °F 75% 28.99 in 10.0 mi SE 20.7 mph 26.5 mph N/A   Mostly Cloudy
2:56 AM 39.2 °F 30.5 °F 30.2 °F 70% 29.00 in 10.0 mi SSE 16.1 mph 21.9 mph N/A   Mostly Cloudy
3:16 AM 37.4 °F 28.2 °F 30.2 °F 75% 29.00 in 10.0 mi SSE 16.1 mph 20.7 mph N/A   Overcast
3:36 AM 39.2 °F 29.3 °F 32.0 °F 75% 28.98 in 10.0 mi SE 20.7 mph 25.3 mph N/A   Overcast
3:56 AM 37.4 °F 27.2 °F 32.0 °F 81% 28.98 in 10.0 mi SE 19.6 mph 26.5 mph N/A   Scattered Clouds
4:16 AM 39.2 °F 29.6 °F 32.0 °F 75% 28.98 in 10.0 mi SE 19.6 mph 25.3 mph N/A   Mostly Cloudy
4:36 AM 39.2 °F 30.2 °F 32.0 °F 75% 28.98 in 10.0 mi SE 17.3 mph 25.3 mph N/A   Overcast
4:56 AM 39.2 °F 29.6 °F 30.2 °F 70% 28.99 in 10.0 mi SE 19.6 mph 26.5 mph 0.01 in   Overcast
5:16 AM 39.2 °F 30.2 °F 32.0 °F 75% 28.99 in 10.0 mi SE 17.3 mph 21.9 mph N/A   Overcast
5:36 AM 39.2 °F 30.5 °F 32.0 °F 75% 29.00 in 10.0 mi ESE 16.1 mph 20.7 mph 0.01 in   Mostly Cloudy
5:56 AM 39.2 °F 31.2 °F 32.0 °F 75% 29.00 in 9.0 mi ESE 13.8 mph - 0.01 in   Overcast
6:16 AM 39.2 °F 31.6 °F 32.0 °F 75% 29.00 in 10.0 mi ESE 12.7 mph 20.7 mph 0.01 in   Overcast
6:36 AM 37.4 °F 29.3 °F 32.0 °F 81% 29.01 in 10.0 mi SE 12.7 mph 19.6 mph 0.01 in   Overcast
6:56 AM 37.4 °F - 32.0 °F 81% 29.02 in 10.0 mi Calm Calm - 0.02 in   Overcast
7:16 AM 37.4 °F - 32.0 °F 81% 29.03 in 10.0 mi Calm Calm - 0.02 in   Overcast
7:36 AM 37.4 °F 32.1 °F 32.0 °F 81% 29.03 in 10.0 mi SW 6.9 mph - 0.04 in   Overcast
7:56 AM 37.4 °F 32.1 °F 30.2 °F 75% 29.05 in 10.0 mi WSW 6.9 mph - 0.04 in   Overcast
8:16 AM 35.6 °F 30.7 °F 30.2 °F 81% 29.06 in 10.0 mi WSW 5.8 mph - N/A   Overcast
8:36 AM 37.4 °F - 32.0 °F 81% 29.07 in 10.0 mi Calm Calm - 0.01 in   Overcast
8:56 AM 37.4 °F 32.1 °F 33.8 °F 87% 29.08 in 10.0 mi SE 6.9 mph - 0.03 in   Overcast
9:16 AM 37.4 °F 30.8 °F 32.0 °F 81% 29.09 in 10.0 mi ESE 9.2 mph - N/A   Overcast
9:36 AM 37.4 °F 34.9 °F 32.0 °F 81% 29.10 in 10.0 mi South 3.5 mph - N/A   Overcast
9:56 AM 37.4 °F 34.9 °F 32.0 °F 81% 29.11 in 10.0 mi South 3.5 mph - N/A   Overcast
10:16 AM 37.4 °F - 32.0 °F 81% 29.12 in 10.0 mi Calm Calm - N/A   Overcast
10:36 AM 37.4 °F 33.8 °F 32.0 °F 81% 29.13 in 10.0 mi East 4.6 mph - N/A   Overcast
10:56 AM 37.4 °F - 30.2 °F 75% 29.14 in 10.0 mi Calm Calm - N/A   Overcast
11:16 AM 37.4 °F 34.9 °F 32.0 °F 81% 29.15 in 10.0 mi East 3.5 mph - N/A   Overcast
11:36 AM 37.4 °F - 30.2 °F 75% 29.16 in 10.0 mi Calm Calm - N/A   Overcast
11:56 AM 39.2 °F - 30.2 °F 70% 29.16 in 10.0 mi Calm Calm - N/A   Overcast
12:16 PM 37.4 °F 33.8 °F 30.2 °F 75% 29.17 in 10.0 mi South 4.6 mph - N/A   Overcast
12:36 PM 37.4 °F - 28.4 °F 70% 29.18 in 10.0 mi Calm Calm - N/A   Overcast
12:56 PM 37.4 °F - 30.2 °F 75% 29.19 in 10.0 mi Calm Calm - N/A   Overcast
1:16 PM 37.4 °F 30.8 °F 30.2 °F 75% 29.19 in 10.0 mi East 9.2 mph - N/A   Overcast
1:36 PM 37.4 °F 29.3 °F 30.2 °F 75% 29.19 in 10.0 mi East 12.7 mph - N/A   Overcast
1:56 PM 37.4 °F 31.4 °F 30.2 °F 75% 29.20 in 10.0 mi ESE 8.1 mph - N/A   Overcast
2:16 PM 37.4 °F 32.1 °F 30.2 °F 75% 29.21 in 10.0 mi SE 6.9 mph - N/A   Mostly Cloudy
2:36 PM 35.6 °F 31.7 °F 30.2 °F 81% 29.21 in 10.0 mi South 4.6 mph - N/A   Mostly Cloudy
2:56 PM 35.6 °F 30.7 °F 28.4 °F 75% 29.21 in 10.0 mi South 5.8 mph - N/A   Mostly Cloudy
3:16 PM 35.6 °F 29.2 °F 32.0 °F 87% 29.22 in 10.0 mi SSE 8.1 mph - N/A   Mostly Cloudy
3:36 PM 35.6 °F 30.7 °F 30.2 °F 81% 29.22 in 10.0 mi SSE 5.8 mph - N/A   Mostly Cloudy
3:56 PM 37.4 °F 28.9 °F 32.0 °F 81% 29.22 in 10.0 mi East 13.8 mph - N/A   Mostly Cloudy
4:16 PM 35.6 °F 32.8 °F 28.4 °F 75% 29.24 in 10.0 mi WSW 3.5 mph - N/A   Mostly Cloudy
4:36 PM 35.6 °F 32.8 °F 28.4 °F 75% 29.24 in 10.0 mi ESE 3.5 mph - N/A   Mostly Cloudy
4:56 PM 33.8 °F 27.7 °F 26.6 °F 75% 29.24 in 10.0 mi South 6.9 mph - N/A   Clear
5:16 PM 33.8 °F 28.6 °F 26.6 °F 75% 29.24 in 10.0 mi South 5.8 mph - N/A   Clear
5:36 PM 35.6 °F - 26.6 °F 70% 29.24 in 10.0 mi Calm Calm - N/A   Clear
5:56 PM 35.6 °F 32.8 °F 28.4 °F 75% 29.25 in 10.0 mi SSW 3.5 mph - N/A   Overcast
6:16 PM 35.6 °F 30.7 °F 28.4 °F 75% 29.26 in 10.0 mi SSW 5.8 mph - N/A   Overcast
6:36 PM 33.8 °F - 28.4 °F 81% 29.26 in 10.0 mi Calm Calm - N/A   Overcast
6:56 PM 33.8 °F - 28.4 °F 81% 29.26 in 10.0 mi Calm Calm - 0.01 in   Overcast
7:16 PM 33.8 °F 30.8 °F 28.4 °F 81% 29.26 in 10.0 mi SW 3.5 mph - N/A   Overcast
7:36 PM 33.8 °F 30.8 °F 28.4 °F 81% 29.27 in 10.0 mi West 3.5 mph - N/A   Overcast
7:56 PM 33.8 °F 29.6 °F 28.4 °F 81% 29.27 in 10.0 mi SW 4.6 mph - N/A   Overcast
8:16 PM 33.8 °F 30.8 °F 28.4 °F 81% 29.27 in 10.0 mi West 3.5 mph - N/A   Overcast
8:36 PM 33.8 °F 30.8 °F 28.4 °F 81% 29.27 in 10.0 mi West 3.5 mph - N/A   Overcast
8:56 PM 33.8 °F - 28.4 °F 81% 29.27 in 10.0 mi Calm Calm - N/A   Overcast
9:16 PM 33.8 °F - 28.4 °F 81% 29.27 in 10.0 mi Calm Calm - N/A   Overcast
9:36 PM 33.8 °F - 28.4 °F 81% 29.27 in 10.0 mi Calm Calm - N/A   Overcast
9:56 PM 33.8 °F 27.7 °F 30.2 °F 87% 29.28 in 9.0 mi SSE 6.9 mph - 0.01 in   Overcast
10:16 PM 35.6 °F 29.9 °F 30.2 °F 81% 29.28 in 9.0 mi East 6.9 mph - N/A   Overcast
10:36 PM 35.6 °F 28.0 °F 30.2 °F 81% 29.27 in 9.0 mi East 10.4 mph - N/A   Overcast
10:56 PM 35.6 °F 32.8 °F 28.4 °F 75% 29.28 in 9.0 mi SSW 3.5 mph - N/A   Overcast
11:16 PM 33.8 °F 30.8 °F 28.4 °F 81% 29.28 in 10.0 mi South 3.5 mph - N/A   Overcast
11:36 PM 33.8 °F - 28.4 °F 81% 29.28 in 10.0 mi Calm Calm - N/A   Overcast
11:56 PM 33.8 °F 29.6 °F 28.4 °F 81% 29.28 in 10.0 mi SSE 4.6 mph - N/A   Overcast